Taurus 1
1 44530U 19059C   25032.75107602  .00015485  00000-0  30516-2 0  9990
2 44530  98.5907 166.4975 0009504  70.3516 289.8709 14.62570736285238
Duchifat 3
1 44854U 19089C   25032.50192964  .00047043  00000-0  14384-2 0  9990
2 44854  36.9490  81.3325 0010410 209.9525 150.0632 15.32844054283262
TO-108
1 44881U 19093C   25032.76989179  .00002410  00000-0  28786-3 0  9996
2 44881  97.8056 111.0657 0012716 293.4169  66.5709 14.85077661277109
FloripaSat 1
1 44885U 19093G   25032.77616408  .00012698  00000-0  11384-2 0  9997
2 44885  97.8229 120.3208 0010102 272.7038  87.3027 14.95875892277626
RS-44
1 44909U 19096E   25032.25954239  .00000028  00000-0  72203-4 0  9990
2 44909  82.5245 312.5563 0216451 235.5024 122.5468 12.79738038238277
UPMSat 2
1 46276U 20061E   25032.57198135  .00052649  00000-0  88802-3 0  9990
2 46276  97.2647 104.2480 0000988  55.6018 304.5328 15.51498037245516
AmicalSat
1 46287U 20061R   25010.85863821  .11283921  24654-5  56408-3 0  9994
2 46287  97.2840  89.8720 0009935 281.1985  78.8199 16.41970930241877
SALSAT
1 46495U 20068K   25032.48809027  .00013630  00000-0  64338-3 0  9994
2 46495  97.8470   5.0033 0010365 240.9117 119.1079 15.19529705239056
CubeSX-Sirius-HSE
1 47951U 21022V   25032.80313603  .00087632  00000-0  15322-2 0  9990
2 47951  97.4358 299.6576 0011126  50.7390 309.4847 15.50270811213813
CubeSX-HSE
1 47952U 21022W   25032.78719875  .00096382  00000-0  16595-2 0  9994
2 47952  97.4353 299.8107 0010935  48.9582 311.2613 15.50674815213825
KSU-Cubesat
1 47954U 21022Y   25032.43462824  .00216838  00000-0  20074-2 0  9994
2 47954  97.4345 303.1397 0009059  55.7109 304.5008 15.66789687213727
GRBAlpha
1 47959U 21022AD  25032.81233090  .00093705  00000-0  16203-2 0  9997
2 47959  97.4348 300.0006 0011106  50.3023 309.9206 15.50562188212658
Orbicraft-Zorkiy
1 47960U 21022AE  25032.76554588  .00148396  00000-0  18211-2 0  9999
2 47960  97.4342 302.8232 0009652  50.5174 309.6934 15.59765215213490
TUBIN
1 48900U 21059X   25032.75325844  .00048701  00000-0  97211-3 0  9991
2 48900  97.6649 193.0426 0005279 349.7171  10.3969 15.46679125200190
LEDSAT
1 49069U 21073D   25032.68007268  .00059153  00000-0  13291-2 0  9991
2 49069  97.4067 110.5596 0013127 183.0661 177.0508 15.43061402191600
CUTE
1 49263U 21088D   25032.61529164  .00069626  00000-0  17296-2 0  9995
2 49263  97.4666 105.6573 0009174 353.0925   7.0193 15.40031475184686
TeikyoSat 4
1 49396U 21102B   25032.68500323  .00003844  00000-0  26273-3 0  9998
2 49396  97.4289  75.6721 0012006 205.7640 154.2991 15.06664311177282
Z-Sat
1 49399U 21102E   25032.76129613  .00008089  00000-0  46565-3 0  9991
2 49399  97.4000  78.1237 0018654 182.1692 177.9461 15.12541657177644
KOSEN 1
1 49402U 21102H   25032.54420582  .00014529  00000-0  72653-3 0  9994
2 49402  97.3913  80.4462 0017184 161.8119 198.3733 15.17408449177850
HO-113
1 50466U 21131B   25032.76132253  .00001451  00000-0  46995-3 0  9997
2 50466  98.5152 122.7668 0004756 149.2214 210.9254 14.40502397163042
IRIS-A
1 51044U 22002BN  25032.61539993  .00095231  00000-0  13755-2 0  9990
2 51044  97.3476 107.2147 0003680 290.3582  69.7277 15.55620502169768
Foresail-1
1 52766U 22057AL  25032.44988338  .00079703  00000-0  11657-2 0  9999
2 52766  97.5973 173.1053 0005891  18.3985 341.7481 15.55325371149778
SNUGLITE 2
1 52899U 22065F   25032.38313984  .00003142  00000-0  62816-3 0  9995
2 52899  98.1461 175.8163 0008085 149.1930 210.9748 14.62544458137749
IO-117
1 53106U 22080B   25027.56054429 -.00000003  00000-0  00000+0 0  9991
2 53106  70.1423 114.5706 0008128  54.9517 305.1905  6.42557612 59687
FO-118
1 54684U 22167C   25032.79960788  .00323616  00000-0  20369-2 0  9994
2 54684  97.6105 194.9826 0005797 342.7062  17.4004 15.75762798119776
SO-120
1 56992U 23084BU  25032.79656580  .00904488  34814-3  27940-2 0  9996
2 56992  97.5264 167.3787 0011068 294.9119  65.1004 15.91666921 91671
UmKA 1 (RS40S)
1 57172U 23091G   25032.80508069  .00011634  00000-0  66275-3 0  9999
2 57172  97.5789  88.9307 0016497  58.5056 301.7784 15.12854630 88146
CubeBel-2 (EU11S)
1 57175U 23091K   25032.78401696  .00016766  00000-0  88551-3 0  9999
2 57175  97.5785  89.4079 0014409  67.7193 292.5566 15.15493201 88176
VERONIKA
1 58261U 23174F   25032.72966943  .00075498  00000-0  17111-2 0  9993
2 58261  97.4310 114.1362 0007648 147.3465 212.8257 15.42790457 68815
KAFASAT
1 58317U 23174BP  25032.57295563  .00175605  00000-0  21861-2 0  9999
2 58317  97.4204 116.8965 0003460 117.3034 242.8575 15.59338719 69009
ENSO
1 58470U 23185J   25032.78646177  .00054943  00000-0  13465-2 0  9997
2 58470  97.3930 105.2030 0008902 178.1170 182.0111 15.40513542 65265
EIRSAT-1
1 58472U 23185L   25032.77286154  .00072042  00000-0  15615-2 0  9992
2 58472  97.3921 105.7909 0007959 179.3479 180.7781 15.44133065 65308
SONATE-2
1 59112U 24043Q   25032.34189359  .00027557  00000-0  97105-3 0  9996
2 59112  97.4966 161.6947 0011720 207.7662 152.2954 15.29192488 50693
MO-122
1 60209U 24125G   25032.11872241  .00025630  00000-0  89330-3 0  9991
2 60209  97.2943 245.6073 0020286 236.2870 123.6438 15.29429011 32271
GRBBeta
1 60237U 24128C   25032.62853747  .00008756  00000-0  69299-3 0  9993
2 60237  61.9929 165.0679 0038447  27.3866 332.9239 15.00665114 30988
Curium One
1 60242U 24128H   25032.75890988  .00015114  00000-0  11474-2 0  9998
2 60242  61.9832 164.3583 0038574  21.4958 338.7741 15.01829736 31011
ROBUSTA-3A
1 60243U 24128J   25032.52737702  .00013229  00000-0  10179-2 0  9994
2 60243  61.9901 165.6098 0036736  19.5605 340.6885 15.01458827 30973
CatSat
1 60246U 24125J   25032.52133170  .00018819  00000-0  69971-3 0  9998
2 60246  97.2733 246.4262 0045539 187.6295 172.4257 15.26572101 30428
AO-123
1 61781U 24199AY  25032.80213206  .00015495  00000-0  61397-3 0  9995
2 61781  97.3744 262.2361 0015463 293.5337  66.4276 15.25384503 57382
POEM 4 (BGS ARPIT)
1 62461U 24253C   25032.66850759  .00142931  00000-0  79183-3 0  9994
2 62461  55.2202  98.4529 0010766  15.8934 344.2451 15.78627641  5188
